Regional Weather Roundup
Issued by NWS

Home | Current Version | Previous Version | Graphics & Text | Print | Product List | Glossary On
Versions: 1 2 3 4 5 6 7 8 9 10 11 12 13 14 15 16 17 18 19 20 21 22 23 24 25 26 27 28 29 30 31 32 33 34 35 36 37 38 39 40 41 42 43 44 45 46 47 48 49 50
000
ASUS43 KFSD 250410
RWRSD

WEATHER ROUNDUP FOR SOUTH DAKOTA
NATIONAL WEATHER SERVICE SIOUX FALLS SD
1100 PM CDT TUE APR 24 2018

NOTE: "FAIR" INDICATES FEW OR NO CLOUDS BELOW 12,000 FEET WITH NO
SIGNIFICANT WEATHER AND/OR OBSTRUCTIONS TO VISIBILITY.


SDZ001>005-009-010-012>017-250500-
NORTHWEST AND NORTH CENTRAL SOUTH DAKOTA

CITY           SKY/WX    TMP DP  RH WIND       PRES   REMARKS
BUFFALO          N/A     43  25  49 W5        30.32F
FAITH            N/A     39  31  72 W7        30.38S
MOBRIDGE       CLEAR     40  29  64 CALM      30.35R
$$

SDZ012>016-024>037-041>051-057-063-072>074-250500-
SOUTHWEST AND SOUTH CENTRAL SOUTH DAKOTA

CITY           SKY/WX    TMP DP  RH WIND       PRES   REMARKS
RAPID CTY ARPT CLEAR     34  24  67 NW9       30.41R WCI  27
PIERRE         CLEAR     35  29  78 N8        30.36S WCI  29
CUSTER         CLEAR     29  18  63 NW5       30.39R WCI  24
PHILIP         CLEAR     34  32  92 W8        30.39S WCI  27
PINE RIDGE     CLOUDY    35  31  85 W3        30.41S
SPEARFISH      FAIR      34  28  80 SW7       30.41F WCI  28
WINNER         MOCLDY    41  35  79 W8        30.37F
$$

SDZ004>011-016>023-039-040-250500-
NORTHEAST SOUTH DAKOTA

CITY           SKY/WX    TMP DP  RH WIND       PRES   REMARKS
ABERDEEN       CLEAR     39  30  70 N3        30.36R
WATERTOWN      CLEAR     33  29  85 N8        30.32R WCI  26
BROOKINGS      CLEAR     39  32  76 N5        30.32R
SISSETON         N/A     36  32  85 NW9       30.33S
$$

SDZ017-020-022-023-036>040-048>070-250500-
SOUTHEAST SOUTH DAKOTA

CITY           SKY/WX    TMP DP  RH WIND       PRES   REMARKS
SIOUX FALLS    MOCLDY    44  34  67 N12       30.29S
HURON          CLEAR     33  30  88 NW6       30.34S WCI  28
CHAMBERLAIN    PTCLDY    40  40  99 NW9       30.37S
MITCHELL       PTCLDY    41  37  86 NW7       30.34S
YANKTON        LGT RAIN  44  41  89 NW12      30.32R
$$

ABBREVIATIONS USED IN REMARKS
   TC - TEMPERATURE IN CELSIUS
  WCI - WIND CHILL INDEX
   HX - HEAT INDEX
  VSB - VISIBILITY




USA.gov is the U.S. government's official web portal to all federal, state and local government web resources and services.